Regional Weather Roundup
Issued by NWS Binghamton, NY

Home | Current Version | Previous Version | Text Only | Print | Product List | Glossary On
Versions: 1 2 3 4 5 6 7 8 9 10 11 12 13 14 15 16 17 18 19 20 21 22 23 24 25 26 27 28 29 30 31 32 33 34 35 36 37 38 39 40 41 42 43 44 45 46 47 48 49 50
000
ASUS41 KBGM 211010
RWRBGM
RWRBGM
BINGHAMTON REGIONAL WEATHER ROUNDUP
NATIONAL WEATHER SERVICE BINGHAMTON NY
600 AM EDT TUE APR 21 2015

Note: "fair" indicates few or no clouds below 12,000 feet with no
significant weather and/or obstructions to visibility.

* = Station(s) that does not report precipitation, such as rain,
snow, etc, also no thunder or fog.

!NYZ009-015>018-022>025-036-037-044>046-055>057-062-211100
...CENTRAL NEW YORK...

CITY           SKY/WX    TMP DP  RH WIND       PRES   REMARKS
BINGHAMTON     LGT RAIN  44  43  96 NW8       29.60R
CORTLAND       LGT RAIN  45  45 100 S3        29.62R
DANSVILLE      CLOUDY    50  38  63 W3        29.61R
ELMIRA         CLOUDY    48  45  89 W5        29.61R
ITHACA         NOT AVBL
MONTICELLO     CLOUDY    48  48 100 CALM      29.58F
PENN YAN       CLOUDY    47  40  76 SW6       29.60R
ROME           LGT RAIN  48  46  93 W7        29.60R
SYRACUSE       LGT RAIN  49  44  83 SW7       29.59S
$$

!PAZ038>040-043-044-047-048-072-211100
...NORTHEAST PENNSYLVANIA...

CITY           SKY/WX    TMP DP  RH WIND       PRES   REMARKS
HAZLETON       LGT RAIN  50  46  87 W10G16    29.65R
SCRANTON       LGT RAIN  52  47  83 MISG      29.62R
TOWANDA*         N/A     50  46  87 MISG      29.63R
$$
&&
KEY
WCI = WIND CHILL INDEX
VSB = VISIBILITY
HX  = HEAT INDEX
$$



USA.gov is the U.S. government's official web portal to all federal, state and local government web resources and services.